TimeCET,TemperatureF,Dew PointF,Humidity,Sea Level PressureIn,VisibilityMPH,Wind Direction,Wind SpeedMPH,Gust SpeedMPH,PrecipitationIn,Events,Conditions,WindDirDegrees,DateUTC
12:01 AM,23.0,21.2,93,29.83,1.9,North,10.4,-,N/A,Snow,Light Snow,10,2013-02-22 23:01:00
12:30 AM,23.0,21.2,93,29.83,2.2,NNE,10.4,-,N/A,Snow,Light Snow,20,2013-02-22 23:30:00
1:00 AM,22,20,90,29.91,3,NNE,8.9,,,Snow,Light Snow,20,2013-02-23 00:00:00
1:00 AM,23.0,21.2,93,29.80,2.8,North,9.2,-,N/A,Snow,Light Snow,10,2013-02-23 00:00:00
1:24 AM,21.2,19.4,93,29.80,3.1,North,5.8,-,N/A,,Overcast,350,2013-02-23 00:24:00
1:30 AM,21.2,19.4,93,29.80,3.1,North,5.8,-,N/A,,Overcast,350,2013-02-23 00:30:00
2:00 AM,21.2,19.4,93,29.80,3.1,North,9.2,-,N/A,,Overcast,360,2013-02-23 01:00:00
2:30 AM,21.2,19.4,93,29.77,3.1,North,9.2,-,N/A,,Overcast,10,2013-02-23 01:30:00
3:00 AM,21.2,19.4,93,29.77,5.0,North,8.1,-,N/A,,Overcast,10,2013-02-23 02:00:00
3:30 AM,21.2,19.4,93,29.77,5.0,North,8.1,-,N/A,,Overcast,10,2013-02-23 02:30:00
4:00 AM,21.2,19.4,93,29.77,5.0,North,6.9,-,N/A,,Overcast,360,2013-02-23 03:00:00
4:30 AM,21.2,19.4,93,29.77,5.0,North,6.9,-,N/A,,Overcast,350,2013-02-23 03:30:00
5:00 AM,21.2,19.4,93,29.77,5.0,North,8.1,-,N/A,,Overcast,360,2013-02-23 04:00:00
5:30 AM,23.0,19.4,86,29.77,5.0,North,8.1,-,N/A,Snow,Light Snow,360,2013-02-23 04:30:00
6:00 AM,23.0,19.4,86,29.74,3.1,North,10.4,-,N/A,Snow,Light Snow,360,2013-02-23 05:00:00
6:30 AM,23.0,19.4,86,29.74,3.1,North,11.5,-,N/A,Snow,Light Snow,360,2013-02-23 05:30:00
6:42 AM,23.0,19.4,86,29.74,2.2,North,11.5,-,N/A,Snow,Snow,360,2013-02-23 05:42:00
7:00 AM,22,20,86,29.83,1,North,11.2,,,Snow,Snow,10,2013-02-23 06:00:00
7:00 AM,23.0,19.4,86,29.74,1.4,North,10.4,-,N/A,Snow,Snow,360,2013-02-23 06:00:00
7:30 AM,23.0,21.2,93,29.74,1.4,North,9.2,-,N/A,Snow,Snow,10,2013-02-23 06:30:00
8:00 AM,23.0,21.2,93,29.74,0.9,North,9.2,-,N/A,Snow,Snow,10,2013-02-23 07:00:00
8:30 AM,23.0,21.2,93,29.74,0.9,North,9.2,-,N/A,Snow,Snow,360,2013-02-23 07:30:00
9:00 AM,23.0,21.2,93,29.71,0.9,North,11.5,-,N/A,Snow,Snow,10,2013-02-23 08:00:00
9:30 AM,23.0,21.2,93,29.71,0.7,North,13.8,-,N/A,Snow,Snow,10,2013-02-23 08:30:00
10:00 AM,24.8,23.0,93,29.71,0.7,North,11.5,-,N/A,Snow,Heavy Snow,10,2013-02-23 09:00:00
10:14 AM,24.8,23.0,93,29.71,0.6,North,10.4,-,N/A,Snow,Heavy Snow,10,2013-02-23 09:14:00
10:30 AM,24.8,23.0,93,29.71,0.5,North,10.4,-,N/A,Fog-Snow,Heavy Snow,10,2013-02-23 09:30:00
11:00 AM,24.8,23.0,93,29.71,0.4,North,10.4,-,N/A,Fog-Snow,Heavy Snow,360,2013-02-23 10:00:00
11:30 AM,24.8,23.0,93,29.71,0.4,North,11.5,-,N/A,Fog-Snow,Heavy Snow,360,2013-02-23 10:30:00
12:00 PM,24.8,23.0,93,29.71,0.5,North,11.5,-,N/A,Fog-Snow,Snow,360,2013-02-23 11:00:00
12:30 PM,26.6,23.0,86,29.71,0.7,North,10.4,-,N/A,Snow,Snow,10,2013-02-23 11:30:00
12:43 PM,26.6,24.8,93,29.71,0.6,North,9.2,-,N/A,Snow,Snow,360,2013-02-23 11:43:00
1:00 PM,26,24,89,29.78,0,North,8.9,,,Snow,Heavy Snow,0,2013-02-23 12:00:00
1:00 PM,26.6,24.8,93,29.71,0.4,North,9.2,-,N/A,Fog-Snow,Heavy Snow,360,2013-02-23 12:00:00
1:30 PM,26.6,24.8,93,29.68,0.5,North,6.9,-,N/A,Fog-Snow,Heavy Snow,350,2013-02-23 12:30:00
1:35 PM,26.6,24.8,93,29.71,0.9,North,8.1,-,N/A,Snow,Snow,350,2013-02-23 12:35:00
2:00 PM,26.6,24.8,93,29.71,0.9,North,8.1,-,N/A,Snow,Snow,350,2013-02-23 13:00:00
2:30 PM,26.6,24.8,93,29.71,0.8,North,5.8,-,N/A,Snow,Snow,350,2013-02-23 13:30:00
2:36 PM,26.6,24.8,93,29.71,0.7,North,6.9,-,N/A,Snow,Snow,350,2013-02-23 13:36:00
3:00 PM,26.6,24.8,93,29.71,0.9,North,6.9,-,N/A,Snow,Snow,350,2013-02-23 14:00:00
3:30 PM,26.6,24.8,93,29.71,1.6,North,5.8,-,N/A,Snow,Light Snow,350,2013-02-23 14:30:00
4:00 PM,26.6,24.8,93,29.71,-9999.0,NNW,4.6,-,N/A,Snow,Light Snow,340,2013-02-23 15:00:00
4:30 PM,26.6,24.8,93,29.74,-9999.0,NW,4.6,-,N/A,,Overcast,310,2013-02-23 15:30:00
5:00 PM,26.6,24.8,93,29.74,2.2,NNW,4.6,-,N/A,,Overcast,330,2013-02-23 16:00:00
5:19 PM,26.6,24.8,93,29.74,1.2,NNW,4.6,-,N/A,,Overcast,330,2013-02-23 16:19:00
5:30 PM,26.6,24.8,93,29.74,0.9,NW,3.5,-,N/A,,Overcast,320,2013-02-23 16:30:00
6:00 PM,26.6,24.8,93,29.74,0.7,NW,3.5,-,N/A,Snow,Light Snow,310,2013-02-23 17:00:00
6:30 PM,26.6,26.6,100,29.74,1.2,Variable,2.3,-,N/A,Snow,Light Snow,0,2013-02-23 17:30:00
7:00 PM,26,26,97,29.83,1,WNW,2.2,,,Snow,Light Snow,290,2013-02-23 18:00:00
7:00 PM,26.6,26.6,100,29.74,1.5,West,2.3,-,N/A,,Overcast,270,2013-02-23 18:00:00
7:30 PM,26.6,26.6,100,29.77,1.9,WSW,3.5,-,N/A,,Overcast,240,2013-02-23 18:30:00
8:00 PM,26.6,24.8,93,29.77,2.5,SW,4.6,-,N/A,,Overcast,230,2013-02-23 19:00:00
8:20 PM,24.8,24.8,100,29.77,2.5,SW,3.5,-,N/A,,Overcast,230,2013-02-23 19:20:00
8:30 PM,24.8,23.0,93,29.77,2.5,SW,3.5,-,N/A,,Mostly Cloudy,230,2013-02-23 19:30:00
8:38 PM,24.8,23.0,93,29.77,2.5,SW,3.5,-,N/A,,Mostly Cloudy,230,2013-02-23 19:38:00
9:00 PM,24.8,23.0,93,29.77,2.5,WSW,3.5,-,N/A,,Mostly Cloudy,250,2013-02-23 20:00:00
9:07 PM,24.8,23.0,93,29.77,2.5,WSW,4.6,-,N/A,,Mostly Cloudy,240,2013-02-23 20:07:00
9:30 PM,24.8,23.0,93,29.80,2.5,WSW,3.5,-,N/A,,Mostly Cloudy,240,2013-02-23 20:30:00
10:00 PM,24.8,23.0,93,29.80,2.5,Variable,2.3,-,N/A,,Mostly Cloudy,0,2013-02-23 21:00:00
10:30 PM,24.8,24.8,100,29.80,2.5,North,2.3,-,N/A,,Mostly Cloudy,350,2013-02-23 21:30:00
11:00 PM,24.8,23.0,93,29.80,1.9,North,3.5,-,N/A,,Mostly Cloudy,10,2013-02-23 22:00:00
11:05 PM,24.8,23.0,93,29.80,1.9,North,2.3,-,N/A,Fog,Mostly Cloudy,360,2013-02-23 22:05:00
11:30 PM,24.8,24.8,100,29.80,1.9,ENE,2.3,-,N/A,Fog,Mostly Cloudy,60,2013-02-23 22:30:00
11:48 PM,24.8,24.8,100,29.80,2.8,East,2.3,-,N/A,,Mostly Cloudy,80,2013-02-23 22:48:00